Tracking 27126 objects as of 30-Mar-2023
HD Live streaming from Space Station
objects crossing your sky now

BEIDOU G7

Track BEIDOU G7 now!
BEIDOU G7 is classified as:


NORAD ID: 41586
Int'l Code: 2016-037A
Perigee: 35,753.2 km
Apogee: 35,832.1 km
Inclination: 1.5 °
Period: 1,436.0 minutes
Semi major axis: 42163 km
RCS: Unknown
Launch date: June 12, 2016
Source: People's Republic of China (PRC)
Launch site: Xichang Space Center, China (XSC)
Your satellite tracking list
Your tracking list is empty




NASA's NSSDC Master Catalog

Two Line Element Set (TLE):
1 41586U 16037A   23089.21656448 -.00000360  00000-0  00000+0 0  9998
2 41586   1.5109  65.0060 0009358 345.3190 325.4890  1.00275748 25001
Source of the keplerian elements: AFSPC